Flag for Rwanda Weather past 2 weeks in Butare, Rwanda

Now
84 °F

Scattered clouds.


Feels Like: 84 °F
Forecast: 55 / 76 °F
Wind: 6 mph from Southeast

Location: Kigali Airport

Current Time: Oct 1, 2014 at 2:41:58 PM

Latest Report: Oct 1, 2014 at 2:00 PM


Visibility: N/A

Pressure: 30.01 "Hg

Humidity: 45%

Dew point: 61 °F

Location of ButareLocation

Historic Weather in Butare — Graph

°F

Butare temperature yesterday

Maximum temperature yesterday: 86 °F (at 2:00 PM)
Minimum temperature yesterday: 61 °F (at 6:00 AM)
Average temperature yesterday: 70 °F

Past Weeks' High & Low Weather Summary

 TemperatureHumidityPressure
High86 °F (Sep 18, 1:00 PM)100% (Sep 17, 12:00 PM)30.24 "Hg (Sep 17, 12:00 PM)
Low59 °F (Sep 21, 5:30 AM)40% (Sep 18, 4:00 PM)30.01 "Hg (Sep 17, 4:00 PM)
Average71 °F75%30.11 "Hg
* Reported Sep 16 1:00 PM — Oct 1 1:30 PM, Butare, Weather by CustomWeather, © 2014

Note: Actual official high and low records may vary slightly from our data, if they occured in-between our weather recording intervals... More about our weather records

Advertising

Butare weather history for previous 24 hours

 ConditionsComfort  
Time TempWeatherWind HumidityBarometerVisibility
1:30 PM
Oct 1
84 °FScattered clouds.5 mph48%30.04 "HgN/A
1:00 PM82 °FScattered clouds.3 mph51%30.04 "HgN/A
12:00 PM79 °FScattered clouds.3 mph58%30.09 "HgN/A
11:30 AM75 °FScattered clouds.3 mph69%30.15 "HgN/A
11:00 AM75 °FScattered clouds.3 mph69%30.15 "HgN/A
10:30 AM75 °FScattered clouds.9 mph69%30.15 "HgN/A
10:00 AM72 °FScattered clouds.8 mph78%30.15 "HgN/A
9:30 AM73 °FScattered clouds.7 mph78%30.15 "HgN/A
9:00 AM72 °FScattered clouds.No wind78%30.15 "HgN/A
8:30 AM72 °FPassing clouds.No wind78%30.15 "Hg5 mi
8:00 AM68 °FPassing clouds.No wind88%30.15 "Hg5 mi
7:30 AM66 °FPassing clouds.No wind94%30.15 "Hg4 mi
7:00 AM64 °FPassing clouds.No wind94%30.12 "Hg4 mi
6:30 AM61 °FPassing clouds.No wind100%30.12 "Hg4 mi
6:00 AM61 °FPassing clouds.No wind100%30.09 "Hg5 mi
5:30 AM61 °FPassing clouds.No wind100%30.09 "HgN/A
5:00 AM61 °FPassing clouds.No wind100%30.09 "HgN/A
4:30 AM61 °FClear.No wind100%30.09 "Hg10 mi
4:00 AM61 °FClear.5 mph100%30.07 "Hg10 mi
3:30 AM61 °FClear.5 mph100%30.07 "Hg10 mi
3:00 AM63 °FClear.6 mph100%30.07 "Hg10 mi
2:30 AM63 °FClear.7 mph100%30.07 "Hg10 mi
2:00 AM63 °FClear.6 mph100%30.07 "Hg10 mi
1:30 AM63 °FPassing clouds.5 mph100%30.09 "HgN/A
1:00 AM63 °FPassing clouds.No wind100%30.09 "HgN/A
12:30 AM63 °FPassing clouds.No wind100%30.09 "HgN/A
12:00 AM63 °FPassing clouds.No wind100%30.09 "HgN/A
11:30 PM
Sep 30
64 °FPassing clouds.3 mph100%30.12 "HgN/A
11:00 PM64 °FPassing clouds.3 mph100%30.12 "HgN/A
10:30 PM64 °FPassing clouds.6 mph100%30.12 "HgN/A
10:00 PM64 °FPassing clouds.3 mph100%30.12 "HgN/A
9:30 PM64 °FPassing clouds.3 mph100%30.12 "HgN/A
9:00 PM64 °FPassing clouds.7 mph100%30.12 "HgN/A
8:30 PM64 °FPassing clouds.6 mph100%30.09 "HgN/A
8:00 PM64 °FPassing clouds.7 mph100%30.09 "HgN/A
7:30 PM64 °FPassing clouds.7 mph100%30.09 "HgN/A
7:00 PM66 °FThunderstorms. Passing clouds.8 mph94%30.07 "Hg5 mi
6:30 PM64 °FThunderstorms. Passing clouds.5 mph100%30.07 "Hg5 mi
6:00 PM66 °FThunderstorms. Passing clouds.14 mph100%30.07 "Hg4 mi
5:30 PM68 °FThunderstorms. Partly sunny.14 mph88%30.07 "HgN/A
5:00 PM68 °FThunderstorms. Partly sunny.16 mph88%30.04 "HgN/A
4:30 PM68 °FThunderstorms. Partly sunny.18 mph94%30.04 "Hg5 mi
4:00 PM81 °FThunderstorms. Partly sunny.16 mph54%30.01 "HgN/A
3:30 PM82 °FThunderstorms. Partly sunny.9 mph45%30.01 "HgN/A
3:00 PM82 °FScattered clouds.9 mph45%30.01 "HgN/A
2:30 PM84 °FScattered clouds.9 mph45%30.01 "HgN/A
2:00 PM86 °FPartly sunny.9 mph43%30.04 "HgN/A
Weather by CustomWeather, © 2014

See weather overviewHow to use our weather pages